Flag for Germany Weather past 2 weeks in Gütersloh, North Rhine-Westphalia, Germany

Now
40 °F

Passing clouds.


Feels Like: 40 °F
Forecast: 35 / 44 °F
Wind: 2 mph from Southeast

Location: Bad Lippspringe

Current Time: Mar 1, 2015 at 9:58:06 PM

Latest Report: Mar 1, 2015 at 9:00 PM


Visibility: 7 mi

Pressure: 29.60 "Hg

Humidity: 95%

Dew point: 38 °F

Location of GüterslohLocation

Historic Weather in Gütersloh — Graph

°F

Gütersloh temperature yesterday

Maximum temperature yesterday: 45 °F (at 4:00 PM)
Minimum temperature yesterday: 30 °F (at 3:00 AM)
Average temperature yesterday: 37 °F

Past Weeks' High & Low Weather Summary

 TemperatureHumidityPressure
High51 °F (Mar 1, 3:00 PM)100% (Feb 17, 6:00 PM)30.78 "Hg (Feb 17, 6:00 PM)
Low26 °F (Feb 19, 5:00 AM)44% (Feb 28, 3:00 PM)29.32 "Hg (Feb 21, 7:00 AM)
Average38 °F81%29.97 "Hg
* Reported Feb 14 8:00 PM — Mar 1 8:00 PM, Gütersloh, Weather by CustomWeather, © 2015

Note: Actual official high and low records may vary slightly from our data, if they occured in-between our weather recording intervals... More about our weather records

Advertising

Gütersloh weather history for previous 24 hours

 ConditionsComfort  
Time TempWeatherWind HumidityBarometerVisibility
8:00 PM
Sun, Mar 1
41 °FDrizzle. Overcast.2 mph93%29.62 "Hg12 mi
7:00 PM42 °FOvercast.2 mph90%29.62 "Hg22 mi
6:00 PM42 °FLight freezing rain. Overcast.5 mph90%29.62 "Hg9 mi
5:00 PM49 °FOvercast.8 mph62%29.58 "Hg28 mi
4:00 PM50 °FPartly sunny.8 mph56%29.57 "Hg34 mi
3:00 PM51 °FOvercast.12 mph57%29.57 "Hg22 mi
2:00 PM48 °FPartly sunny.6 mph75%29.57 "Hg22 mi
1:00 PM47 °FOvercast.6 mph83%29.58 "Hg22 mi
12:00 PM46 °FLight freezing rain. Overcast.6 mph86%29.58 "Hg14 mi
11:00 AM45 °FOvercast.7 mph81%29.58 "Hg43 mi
10:00 AM44 °FOvercast.8 mph81%29.59 "Hg43 mi
9:00 AM42 °FOvercast.6 mph85%29.57 "Hg43 mi
8:00 AM38 °FDrizzle. Overcast.6 mph91%29.59 "Hg11 mi
7:00 AM38 °FDrizzle. Overcast.6 mph86%29.60 "Hg19 mi
6:00 AM38 °FLight rain. Overcast.5 mph88%29.62 "Hg17 mi
5:00 AM38 °FLight rain. Overcast.3 mph78%29.65 "HgN/A
4:00 AM40 °FOvercast.6 mph65%29.66 "HgN/A
3:00 AM40 °FOvercast.3 mph64%29.72 "Hg43 mi
2:00 AM39 °FOvercast.5 mph64%29.76 "Hg43 mi
1:00 AM39 °FOvercast.3 mph62%29.79 "Hg43 mi
12:00 AM39 °FOvercast.3 mph60%29.84 "Hg43 mi
11:00 PM
Sat, Feb 28
36 °FClear.3 mph68%29.88 "Hg43 mi
10:00 PM38 °FClear.5 mph65%29.92 "Hg43 mi
9:00 PM38 °FClear.5 mph65%29.95 "Hg43 mi
Weather by CustomWeather, © 2015

See weather overviewHow to use our weather pages